Farmingdale, NY

5:03 AM EST on December 09, 2016 (GMT -0500)
Republic

Weather History for KFRG - May, 2013

Change the Weather History Date:

Wednesday, May 22, 2013

  Actual Average Record
Temperature  
Mean Temperature 66 °F -  
Max Temperature 75 °F 66 °F 78 °F (1999)
Min Temperature 57 °F 50 °F 44 °F (2002)
Cooling Degree Days 1    
Growing Degree Days 16 (Base 50)    
Moisture  
Dew Point 62 °F    
Average Humidity 90    
Maximum Humidity 100    
Minimum Humidity 73    
Precipitation  
Precipitation 0.00 in - - ()
Sea Level Pressure  
Sea Level Pressure 29.91 in    
Wind  
Wind Speed 6 mph (South)    
Max Wind Speed 13 mph    
Max Gust Speed -    
Visibility 7 miles    
Events Thunderstorm    
Averages and records for this station are not official NWS values.
T = Trace of Precipitation, MM = Missing Value Source: NWS Daily Summary

Daily Weather History Graph

Daily Weather History Graph

Search for Another Location

Airport or City:

Trip Planner

Search our weather history database for the weather conditions in past years. The results will help you decide how hot, cold, wet, or windy it might be!

Date:

Astronomy

May. 22, 2013 Rise Set
Actual Time 5:30 AM EDT 8:10 PM EDT
Civil Twilight 4:58 AM EDT 8:42 PM EDT
Nautical Twilight 4:18 AM EDT 9:22 PM EDT
Astronomical Twilight 3:33 AM EDT 10:07 PM EDT
Moon 5:29 PM EDT (5/22) 3:33 AM EDT (5/22)
Length of Visible Light 15h 44m
Length of Day
14h 40m
Waxing Gibbous, 91% of the Moon is Illuminated
May 22
Waxing Gibbous
May 25
Full
May 31
Last Quarter
Jun 8
New
Jun 16
First Quarter

Hourly Weather History & Observations

Time (EDT) Temp. Dew Point Humidity Pressure Visibility Wind Dir Wind Speed Gust Speed Precip Events Conditions
12:53 AM 64.0 °F 62.1 °F 93% 29.89 in 10.0 mi SW 5.8 mph - N/A   Clear
1:53 AM 64.0 °F 62.1 °F 93% 29.89 in 9.0 mi SSW 4.6 mph - N/A   Clear
2:53 AM 64.0 °F 62.1 °F 93% 29.88 in 9.0 mi SW 3.5 mph - N/A   Clear
3:53 AM 63.0 °F 62.1 °F 97% 29.88 in 8.0 mi Calm Calm - N/A   Clear
4:46 AM 62.6 °F 62.6 °F 100% 29.89 in 7.0 mi ENE 4.6 mph - N/A   Mostly Cloudy
4:53 AM 63.0 °F 62.1 °F 97% 29.89 in 7.0 mi East 4.6 mph - N/A   Mostly Cloudy
5:17 AM 62.6 °F 62.6 °F 100% 29.90 in 7.0 mi East 6.9 mph - N/A   Overcast
5:53 AM 62.1 °F 61.0 °F 96% 29.91 in 5.0 mi ESE 9.2 mph - N/A   Overcast
6:43 AM 59.0 °F 57.2 °F 94% 29.94 in 2.5 mi East 11.5 mph - N/A   Overcast
6:53 AM 59.0 °F 57.9 °F 96% 29.94 in 2.0 mi East 6.9 mph - N/A   Overcast
7:20 AM 57.2 °F 57.2 °F 100% 29.95 in 3.0 mi East 11.5 mph - N/A   Overcast
7:29 AM 57.2 °F 57.2 °F 100% 29.94 in 2.5 mi ESE 8.1 mph - N/A Thunderstorm Overcast
7:47 AM 57.2 °F 55.4 °F 94% 29.94 in 3.0 mi ESE 10.4 mph - N/A   Overcast
7:48 AM 57.0 °F 55.9 °F 96% 29.94 in 3.0 mi ESE 10.4 mph - N/A   Overcast
8:53 AM 57.9 °F 57.0 °F 97% 29.95 in 7.0 mi ESE 8.1 mph - N/A   Overcast
9:53 AM 60.1 °F 57.9 °F 93% 29.94 in 7.0 mi SE 3.5 mph - N/A   Overcast
10:09 AM 60.8 °F 57.2 °F 88% 29.93 in 7.0 mi SSE 4.6 mph - N/A   Overcast
10:53 AM 63.0 °F 60.1 °F 90% 29.94 in 7.0 mi Calm Calm - N/A   Overcast
11:43 AM 68.0 °F 62.6 °F 83% 29.92 in 9.0 mi Calm Calm - N/A   Overcast
11:53 AM 66.9 °F 61.0 °F 81% 29.93 in 9.0 mi Calm Calm - N/A   Overcast
12:35 PM 71.6 °F 62.6 °F 73% 29.92 in 9.0 mi Calm Calm - N/A   Overcast
12:53 PM 72.0 °F 63.0 °F 73% 29.92 in 9.0 mi South 4.6 mph - N/A   Overcast
1:53 PM 75.0 °F 66.0 °F 73% 29.90 in 10.0 mi Variable 6.9 mph - N/A   Overcast
2:50 PM 71.6 °F 66.2 °F 83% 29.90 in 9.0 mi South 9.2 mph - N/A   Overcast
2:53 PM 72.0 °F 66.0 °F 81% 29.90 in 9.0 mi South 9.2 mph - N/A   Overcast
3:22 PM 69.8 °F 66.2 °F 88% 29.90 in 7.0 mi SSW 6.9 mph - N/A   Overcast
3:53 PM 70.0 °F 66.9 °F 90% 29.89 in 6.0 mi SSW 5.8 mph - N/A   Overcast
4:53 PM 68.0 °F 64.0 °F 87% 29.88 in 6.0 mi South 6.9 mph - N/A   Overcast
5:31 PM 68.0 °F 62.6 °F 83% 29.88 in 7.0 mi South 8.1 mph - N/A   Overcast
5:53 PM 66.9 °F 63.0 °F 87% 29.88 in 7.0 mi SSW 9.2 mph - N/A   Overcast
6:27 PM 69.8 °F 64.4 °F 83% 29.87 in 7.0 mi South 8.1 mph - N/A   Scattered Clouds
6:53 PM 68.0 °F 63.0 °F 84% 29.87 in 7.0 mi South 12.7 mph - N/A   Partly Cloudy
7:27 PM 66.2 °F 62.6 °F 88% 29.88 in 7.0 mi SSW 9.2 mph - N/A   Mostly Cloudy
7:39 PM 66.2 °F 62.6 °F 88% 29.88 in 8.0 mi SSW 8.1 mph - N/A   Scattered Clouds
7:53 PM 66.0 °F 62.1 °F 87% 29.88 in 8.0 mi SSW 8.1 mph - N/A   Partly Cloudy
8:53 PM 64.9 °F 62.1 °F 90% 29.88 in 10.0 mi SSW 12.7 mph - N/A   Clear
9:53 PM 64.9 °F 62.1 °F 90% 29.90 in 10.0 mi SW 9.2 mph - N/A   Clear
10:53 PM 64.0 °F 62.1 °F 93% 29.91 in 10.0 mi SSW 11.5 mph - N/A   Clear
11:53 PM 63.0 °F 61.0 °F 93% 29.91 in 9.0 mi SSW 8.1 mph - N/A   Clear